Time,TemperatureF,DewpointF,PressureIn,WindDirection,WindDirectionDegrees,WindSpeedMPH,WindSpeedGustMPH,Humidity,HourlyPrecipIn,Conditions,Clouds,dailyrainin,SoftwareType,DateUTC
2013-05-20 00:01:00,68.3,68.0,29.37,SE,135,1.0,4.0,99,0.00,,,0.00,Rainwise IP-100,2013-05-20 04:01:00,
2013-05-20 00:06:00,68.3,68.0,29.37,SSE,157,2.0,2.0,99,0.00,,,0.00,Rainwise IP-100,2013-05-20 04:06:00,
2013-05-20 00:11:00,68.3,68.0,29.37,SE,135,2.0,3.0,99,0.00,,,0.00,Rainwise IP-100,2013-05-20 04:11:00,
2013-05-20 00:16:00,68.3,68.0,29.37,ESE,112,2.0,3.0,99,0.00,,,0.00,Rainwise IP-100,2013-05-20 04:16:00,
2013-05-20 00:21:00,68.2,67.5,29.37,SE,135,1.0,3.0,99,0.00,,,0.00,Rainwise IP-100,2013-05-20 04:21:00,
2013-05-20 00:26:00,68.2,67.5,29.37,SE,135,1.0,2.0,99,0.00,,,0.00,Rainwise IP-100,2013-05-20 04:26:00,
2013-05-20 00:31:00,68.3,68.0,29.37,SE,135,1.0,2.0,99,0.00,,,0.00,Rainwise IP-100,2013-05-20 04:31:00,
2013-05-20 00:36:00,68.4,68.0,29.37,South,180,2.0,3.0,99,0.00,,,0.00,Rainwise IP-100,2013-05-20 04:36:00,
2013-05-20 00:41:00,68.3,68.0,29.37,South,180,2.0,3.0,99,0.00,,,0.00,Rainwise IP-100,2013-05-20 04:41:00,
2013-05-20 00:46:00,68.3,68.0,29.37,South,180,2.0,3.0,99,0.00,,,0.00,Rainwise IP-100,2013-05-20 04:46:00,
2013-05-20 00:51:00,68.3,68.0,29.37,ESE,112,0.0,3.0,99,0.00,,,0.00,Rainwise IP-100,2013-05-20 04:51:00,
2013-05-20 00:56:00,68.3,68.0,29.37,South,180,1.0,2.0,99,0.00,,,0.00,Rainwise IP-100,2013-05-20 04:56:00,
2013-05-20 01:01:00,68.3,68.0,29.37,SW,225,1.0,2.0,99,0.00,,,0.00,Rainwise IP-100,2013-05-20 05:01:00,
2013-05-20 01:06:00,68.3,68.0,29.37,South,180,1.0,3.0,99,0.00,,,0.00,Rainwise IP-100,2013-05-20 05:06:00,
2013-05-20 01:11:00,68.3,68.0,29.37,SW,225,1.0,3.0,99,0.00,,,0.00,Rainwise IP-100,2013-05-20 05:11:00,
2013-05-20 01:16:00,68.3,68.0,29.37,SW,225,3.0,4.0,99,0.00,,,0.00,Rainwise IP-100,2013-05-20 05:16:00,
2013-05-20 01:21:00,68.3,68.0,29.37,SW,225,1.0,4.0,99,0.00,,,0.00,Rainwise IP-100,2013-05-20 05:21:00,
2013-05-20 01:26:00,68.3,68.0,29.37,SW,225,0.0,2.0,99,0.00,,,0.00,Rainwise IP-100,2013-05-20 05:26:00,
2013-05-20 01:31:00,68.3,68.0,29.37,SW,225,0.0,2.0,99,0.00,,,0.00,Rainwise IP-100,2013-05-20 05:31:00,
2013-05-20 01:36:00,68.3,68.0,29.37,ESE,112,2.0,2.0,99,0.00,,,0.00,Rainwise IP-100,2013-05-20 05:36:00,
2013-05-20 01:41:00,68.3,68.0,29.36,SSE,157,0.0,2.0,99,0.06,,,0.01,Rainwise IP-100,2013-05-20 05:41:00,
2013-05-20 01:46:00,68.3,68.0,29.36,SSE,157,1.0,2.0,99,0.06,,,0.01,Rainwise IP-100,2013-05-20 05:46:00,
2013-05-20 01:51:00,68.3,68.0,29.36,SW,225,2.0,4.0,99,0.00,,,0.01,Rainwise IP-100,2013-05-20 05:51:00,
2013-05-20 01:56:00,68.3,68.0,29.36,SSW,202,2.0,4.0,99,0.00,,,0.01,Rainwise IP-100,2013-05-20 05:56:00,
2013-05-20 02:01:00,68.3,68.0,29.36,South,180,1.0,2.0,99,0.00,,,0.01,Rainwise IP-100,2013-05-20 06:01:00,
2013-05-20 02:06:00,68.3,68.0,29.36,SW,225,2.0,4.0,99,0.00,,,0.01,Rainwise IP-100,2013-05-20 06:06:00,
2013-05-20 02:11:00,68.3,68.0,29.36,SW,225,1.0,4.0,99,0.00,,,0.01,Rainwise IP-100,2013-05-20 06:11:00,
2013-05-20 02:16:00,68.3,68.0,29.36,SW,225,2.0,3.0,99,0.00,,,0.01,Rainwise IP-100,2013-05-20 06:16:00,
2013-05-20 02:21:00,68.4,68.0,29.36,SW,225,2.0,2.0,99,0.00,,,0.01,Rainwise IP-100,2013-05-20 06:21:00,
2013-05-20 02:26:00,68.4,68.0,29.35,SW,225,1.0,2.0,99,0.00,,,0.01,Rainwise IP-100,2013-05-20 06:26:00,
2013-05-20 02:31:00,68.3,68.0,29.36,West,270,0.0,3.0,99,0.00,,,0.01,Rainwise IP-100,2013-05-20 06:31:00,
2013-05-20 02:36:00,68.3,68.0,29.36,SW,225,1.0,4.0,99,0.00,,,0.01,Rainwise IP-100,2013-05-20 06:36:00,
2013-05-20 02:41:00,68.3,68.0,29.36,SW,225,3.0,4.0,99,0.00,,,0.01,Rainwise IP-100,2013-05-20 06:41:00,
2013-05-20 02:46:00,68.3,68.0,29.36,SW,225,2.0,4.0,99,0.00,,,0.01,Rainwise IP-100,2013-05-20 06:46:00,
2013-05-20 02:51:00,68.3,68.0,29.35,WSW,247,2.0,5.0,99,0.00,,,0.01,Rainwise IP-100,2013-05-20 06:51:00,
2013-05-20 02:56:00,68.3,68.0,29.35,WSW,247,2.0,6.0,99,0.00,,,0.01,Rainwise IP-100,2013-05-20 06:56:00,
2013-05-20 03:00:00,68.3,68.0,29.35,SW,225,5.0,5.0,99,0.00,,,0.01,Rainwise IP-100,2013-05-20 07:00:00,
2013-05-20 03:05:00,68.3,68.0,29.35,South,180,0.0,5.0,99,0.00,,,0.01,Rainwise IP-100,2013-05-20 07:05:00,
2013-05-20 03:10:00,68.3,68.0,29.35,SW,225,1.0,6.0,99,0.00,,,0.01,Rainwise IP-100,2013-05-20 07:10:00,
2013-05-20 03:15:00,68.3,68.0,29.35,SW,225,2.0,4.0,99,0.00,,,0.01,Rainwise IP-100,2013-05-20 07:15:00,
2013-05-20 03:20:00,68.3,68.0,29.35,SW,225,2.0,2.0,99,0.00,,,0.01,Rainwise IP-100,2013-05-20 07:20:00,
2013-05-20 03:25:00,68.3,68.0,29.35,WSW,247,1.0,4.0,99,0.00,,,0.01,Rainwise IP-100,2013-05-20 07:25:00,
2013-05-20 03:30:00,68.2,67.5,29.35,WSW,247,1.0,3.0,99,0.00,,,0.01,Rainwise IP-100,2013-05-20 07:30:00,
2013-05-20 03:35:00,68.2,67.5,29.35,SW,225,1.0,2.0,99,0.00,,,0.01,Rainwise IP-100,2013-05-20 07:35:00,
2013-05-20 03:40:00,68.2,67.5,29.35,WSW,247,2.0,2.0,99,0.00,,,0.01,Rainwise IP-100,2013-05-20 07:40:00,
2013-05-20 03:45:00,68.2,67.5,29.35,West,270,1.0,3.0,99,0.00,,,0.01,Rainwise IP-100,2013-05-20 07:45:00,
2013-05-20 03:50:00,68.2,67.5,29.35,West,270,0.0,2.0,99,0.00,,,0.01,Rainwise IP-100,2013-05-20 07:50:00,
2013-05-20 03:55:00,68.1,67.5,29.35,SW,225,2.0,2.0,99,0.00,,,0.01,Rainwise IP-100,2013-05-20 07:55:00,
2013-05-20 04:00:00,68.1,67.5,29.36,SW,225,0.0,2.0,99,0.00,,,0.01,Rainwise IP-100,2013-05-20 08:00:00,
2013-05-20 04:05:00,68.1,67.5,29.36,SW,225,1.0,2.0,99,0.00,,,0.01,Rainwise IP-100,2013-05-20 08:05:00,
2013-05-20 04:10:00,68.1,67.5,29.36,SW,225,1.0,2.0,99,0.00,,,0.01,Rainwise IP-100,2013-05-20 08:10:00,
2013-05-20 04:15:00,68.1,67.5,29.35,SW,225,1.0,2.0,99,0.00,,,0.01,Rainwise IP-100,2013-05-20 08:15:00,
2013-05-20 04:20:00,68.1,67.5,29.35,SW,225,2.0,2.0,99,0.00,,,0.01,Rainwise IP-100,2013-05-20 08:20:00,
2013-05-20 04:25:00,67.9,67.5,29.35,SSW,202,2.0,2.0,99,0.00,,,0.01,Rainwise IP-100,2013-05-20 08:25:00,
2013-05-20 04:30:00,67.9,67.5,29.35,SSW,202,0.0,2.0,99,0.00,,,0.01,Rainwise IP-100,2013-05-20 08:30:00,
2013-05-20 04:35:00,67.9,67.5,29.35,WSW,247,1.0,2.0,99,0.00,,,0.01,Rainwise IP-100,2013-05-20 08:35:00,
2013-05-20 04:40:00,67.8,67.5,29.35,WSW,247,1.0,2.0,99,0.00,,,0.01,Rainwise IP-100,2013-05-20 08:40:00,
2013-05-20 04:45:00,67.7,67.0,29.35,WSW,247,2.0,2.0,99,0.00,,,0.01,Rainwise IP-100,2013-05-20 08:45:00,
2013-05-20 04:50:00,67.7,67.0,29.35,WSW,247,0.0,2.0,99,0.00,,,0.01,Rainwise IP-100,2013-05-20 08:50:00,
2013-05-20 04:55:00,67.6,67.0,29.35,WSW,247,2.0,2.0,99,0.00,,,0.01,Rainwise IP-100,2013-05-20 08:55:00,
2013-05-20 05:00:00,67.6,67.0,29.34,WSW,247,2.0,2.0,99,0.00,,,0.01,Rainwise IP-100,2013-05-20 09:00:00,
2013-05-20 05:05:00,67.5,67.0,29.35,West,270,1.0,2.0,99,0.00,,,0.01,Rainwise IP-100,2013-05-20 09:05:00,
2013-05-20 05:10:00,67.5,67.0,29.35,West,270,0.0,2.0,99,0.00,,,0.01,Rainwise IP-100,2013-05-20 09:10:00,
2013-05-20 05:15:00,67.5,67.0,29.35,SSW,202,1.0,2.0,99,0.00,,,0.01,Rainwise IP-100,2013-05-20 09:15:00,
2013-05-20 05:20:00,67.5,67.0,29.35,SSW,202,1.0,2.0,99,0.00,,,0.01,Rainwise IP-100,2013-05-20 09:20:00,
2013-05-20 05:25:00,67.5,67.0,29.35,SSW,202,1.0,2.0,99,0.00,,,0.01,Rainwise IP-100,2013-05-20 09:25:00,
2013-05-20 05:30:00,67.6,67.0,29.35,SSW,202,2.0,2.0,99,0.00,,,0.01,Rainwise IP-100,2013-05-20 09:30:00,
2013-05-20 05:35:00,67.6,67.0,29.35,SSE,157,0.0,2.0,99,0.00,,,0.01,Rainwise IP-100,2013-05-20 09:35:00,
2013-05-20 05:40:00,67.7,67.0,29.35,SSE,157,0.0,2.0,99,0.00,,,0.01,Rainwise IP-100,2013-05-20 09:40:00,
2013-05-20 05:45:00,67.7,67.0,29.35,SSW,202,1.0,2.0,99,0.00,,,0.01,Rainwise IP-100,2013-05-20 09:45:00,
2013-05-20 05:50:00,67.7,67.0,29.35,SSW,202,1.0,2.0,99,0.00,,,0.01,Rainwise IP-100,2013-05-20 09:50:00,
2013-05-20 05:55:00,67.7,67.0,29.35,SW,225,2.0,2.0,99,0.00,,,0.01,Rainwise IP-100,2013-05-20 09:55:00,
2013-05-20 06:00:00,67.7,67.0,29.36,SW,225,0.0,2.0,99,0.00,,,0.01,Rainwise IP-100,2013-05-20 10:00:00,
2013-05-20 06:05:00,67.8,67.5,29.36,SW,225,2.0,2.0,99,0.00,,,0.01,Rainwise IP-100,2013-05-20 10:05:00,
2013-05-20 06:10:00,67.7,67.0,29.36,SW,225,0.0,2.0,99,0.00,,,0.01,Rainwise IP-100,2013-05-20 10:10:00,
2013-05-20 06:15:00,67.7,67.0,29.36,SW,225,1.0,2.0,99,0.00,,,0.01,Rainwise IP-100,2013-05-20 10:15:00,
2013-05-20 06:20:00,67.7,67.0,29.36,SW,225,0.0,2.0,99,0.00,,,0.01,Rainwise IP-100,2013-05-20 10:20:00,
2013-05-20 06:25:00,67.8,67.5,29.36,South,180,0.0,2.0,99,0.00,,,0.01,Rainwise IP-100,2013-05-20 10:25:00,
2013-05-20 06:30:00,67.8,67.5,29.36,South,180,0.0,2.0,99,0.00,,,0.01,Rainwise IP-100,2013-05-20 10:30:00,
2013-05-20 06:35:00,67.8,67.5,29.37,South,180,0.0,1.0,99,0.00,,,0.01,Rainwise IP-100,2013-05-20 10:35:00,
2013-05-20 06:40:00,67.8,67.5,29.37,South,180,0.0,2.0,99,0.00,,,0.01,Rainwise IP-100,2013-05-20 10:40:00,
2013-05-20 06:45:00,67.9,67.5,29.37,South,180,0.0,0.0,99,0.00,,,0.01,Rainwise IP-100,2013-05-20 10:45:00,
2013-05-20 06:50:00,67.9,67.5,29.37,South,180,0.0,0.0,99,0.00,,,0.01,Rainwise IP-100,2013-05-20 10:50:00,
2013-05-20 06:55:00,68.0,67.5,29.37,South,180,0.0,0.0,99,0.00,,,0.01,Rainwise IP-100,2013-05-20 10:55:00,
2013-05-20 07:00:00,67.9,67.5,29.37,SE,135,1.0,2.0,99,0.00,,,0.01,Rainwise IP-100,2013-05-20 11:00:00,
2013-05-20 07:05:00,68.0,67.5,29.38,SE,135,1.0,2.0,99,0.00,,,0.01,Rainwise IP-100,2013-05-20 11:05:00,
2013-05-20 07:10:00,68.2,67.5,29.38,SE,135,1.0,2.0,99,0.00,,,0.01,Rainwise IP-100,2013-05-20 11:10:00,
2013-05-20 07:15:00,68.3,68.0,29.38,South,180,1.0,2.0,99,0.00,,,0.01,Rainwise IP-100,2013-05-20 11:15:00,
2013-05-20 07:20:00,68.4,68.0,29.38,South,180,0.0,2.0,99,0.00,,,0.01,Rainwise IP-100,2013-05-20 11:20:00,
2013-05-20 07:25:00,68.4,68.0,29.38,SW,225,1.0,2.0,99,0.00,,,0.01,Rainwise IP-100,2013-05-20 11:25:00,
2013-05-20 07:30:00,68.4,68.0,29.39,South,180,1.0,2.0,99,0.00,,,0.01,Rainwise IP-100,2013-05-20 11:30:00,
2013-05-20 07:35:00,68.4,68.0,29.39,SE,135,0.0,2.0,99,0.00,,,0.01,Rainwise IP-100,2013-05-20 11:35:00,
2013-05-20 07:40:00,68.4,68.0,29.39,SSE,157,0.0,3.0,99,0.00,,,0.01,Rainwise IP-100,2013-05-20 11:40:00,
2013-05-20 07:45:00,68.6,68.0,29.39,South,180,2.0,2.0,99,0.00,,,0.01,Rainwise IP-100,2013-05-20 11:45:00,
2013-05-20 07:50:00,68.6,68.0,29.39,South,180,1.0,2.0,99,0.00,,,0.01,Rainwise IP-100,2013-05-20 11:50:00,
2013-05-20 07:55:00,68.6,68.0,29.39,SSE,157,2.0,2.0,99,0.00,,,0.01,Rainwise IP-100,2013-05-20 11:55:00,
2013-05-20 08:00:00,68.7,68.0,29.39,SSE,157,1.0,2.0,99,0.00,,,0.01,Rainwise IP-100,2013-05-20 12:00:00,
2013-05-20 08:05:00,68.9,68.5,29.40,SSE,157,0.0,2.0,99,0.00,,,0.01,Rainwise IP-100,2013-05-20 12:05:00,
2013-05-20 08:10:00,69.2,69.0,29.40,SSE,157,1.0,2.0,99,0.00,,,0.01,Rainwise IP-100,2013-05-20 12:10:00,
2013-05-20 08:15:00,69.4,69.0,29.40,SW,225,2.0,2.0,98,0.00,,,0.01,Rainwise IP-100,2013-05-20 12:15:00,
2013-05-20 08:20:00,69.6,69.3,29.41,SW,225,2.0,2.0,98,0.00,,,0.01,Rainwise IP-100,2013-05-20 12:20:00,
2013-05-20 08:25:00,69.7,69.0,29.41,South,180,1.0,4.0,97,0.00,,,0.01,Rainwise IP-100,2013-05-20 12:25:00,
2013-05-20 08:26:00,69.7,69.0,29.41,SSW,202,2.0,4.0,97,0.00,,,0.01,Rainwise IP-100,2013-05-20 12:26:00,
2013-05-20 08:31:00,69.9,69.3,29.42,South,180,2.0,4.0,97,0.00,,,0.01,Rainwise IP-100,2013-05-20 12:31:00,
2013-05-20 08:36:00,70.2,68.5,29.42,South,180,2.0,5.0,95,0.00,,,0.01,Rainwise IP-100,2013-05-20 12:36:00,
2013-05-20 08:41:00,70.5,69.3,29.43,South,180,1.0,4.0,96,0.00,,,0.01,Rainwise IP-100,2013-05-20 12:41:00,
2013-05-20 08:46:00,70.6,69.0,29.43,SW,225,2.0,3.0,95,0.00,,,0.01,Rainwise IP-100,2013-05-20 12:46:00,
2013-05-20 08:51:00,70.7,69.0,29.44,SE,135,1.0,2.0,95,0.00,,,0.01,Rainwise IP-100,2013-05-20 12:51:00,
2013-05-20 08:56:00,70.7,69.0,29.44,South,180,2.0,5.0,94,0.00,,,0.01,Rainwise IP-100,2013-05-20 12:56:00,
2013-05-20 09:01:00,70.8,69.0,29.44,SSW,202,2.0,4.0,94,0.00,,,0.01,Rainwise IP-100,2013-05-20 13:01:00,
2013-05-20 09:06:00,70.8,69.0,29.44,SSW,202,2.0,3.0,93,0.00,,,0.01,Rainwise IP-100,2013-05-20 13:06:00,
2013-05-20 09:11:00,70.9,69.0,29.44,SW,225,1.0,5.0,94,0.00,,,0.01,Rainwise IP-100,2013-05-20 13:11:00,
2013-05-20 09:16:00,71.0,69.0,29.45,SW,225,3.0,5.0,93,0.00,,,0.01,Rainwise IP-100,2013-05-20 13:16:00,
2013-05-20 09:21:00,71.0,69.0,29.44,WSW,247,3.0,6.0,93,0.00,,,0.01,Rainwise IP-100,2013-05-20 13:21:00,
2013-05-20 09:26:00,71.2,69.0,29.45,SW,225,1.0,6.0,92,0.00,,,0.01,Rainwise IP-100,2013-05-20 13:26:00,
2013-05-20 09:31:00,71.7,69.0,29.45,SSW,202,1.0,6.0,91,0.00,,,0.01,Rainwise IP-100,2013-05-20 13:31:00,
2013-05-20 09:36:00,72.1,69.0,29.45,South,180,2.0,5.0,90,0.00,,,0.01,Rainwise IP-100,2013-05-20 13:36:00,
2013-05-20 09:41:00,72.2,69.0,29.46,South,180,2.0,5.0,89,0.00,,,0.01,Rainwise IP-100,2013-05-20 13:41:00,
2013-05-20 09:46:00,72.4,68.5,29.46,SSE,157,4.0,4.0,88,0.00,,,0.01,Rainwise IP-100,2013-05-20 13:46:00,
2013-05-20 09:51:00,72.5,68.5,29.46,WSW,247,4.0,8.0,87,0.00,,,0.01,Rainwise IP-100,2013-05-20 13:51:00,
2013-05-20 09:56:00,72.5,68.5,29.47,South,180,3.0,8.0,86,0.00,,,0.01,Rainwise IP-100,2013-05-20 13:56:00,
2013-05-20 10:01:00,72.8,67.5,29.47,SW,225,7.0,7.0,84,0.00,,,0.01,Rainwise IP-100,2013-05-20 14:01:00,
2013-05-20 10:06:00,72.9,68.0,29.47,SSW,202,4.0,8.0,84,0.00,,,0.01,Rainwise IP-100,2013-05-20 14:06:00,
2013-05-20 10:11:00,72.9,68.5,29.47,WSW,247,2.0,7.0,85,0.00,,,0.01,Rainwise IP-100,2013-05-20 14:11:00,
2013-05-20 10:16:00,73.4,68.5,29.46,South,180,3.0,7.0,84,0.00,,,0.01,Rainwise IP-100,2013-05-20 14:16:00,
2013-05-20 10:21:00,73.4,69.0,29.47,SW,225,1.0,6.0,85,0.00,,,0.01,Rainwise IP-100,2013-05-20 14:21:00,
2013-05-20 10:26:00,73.7,67.5,29.47,West,270,4.0,6.0,81,0.00,,,0.01,Rainwise IP-100,2013-05-20 14:26:00,
2013-05-20 10:31:00,73.7,67.5,29.47,SW,225,3.0,7.0,81,0.00,,,0.01,Rainwise IP-100,2013-05-20 14:31:00,
2013-05-20 10:36:00,73.8,67.0,29.47,SW,225,1.0,5.0,80,0.00,,,0.01,Rainwise IP-100,2013-05-20 14:36:00,
2013-05-20 10:41:00,74.1,67.5,29.47,West,270,2.0,4.0,80,0.00,,,0.01,Rainwise IP-100,2013-05-20 14:41:00,
2013-05-20 10:46:00,73.7,67.0,29.47,West,270,1.0,7.0,80,0.00,,,0.01,Rainwise IP-100,2013-05-20 14:46:00,
2013-05-20 10:51:00,73.8,66.7,29.47,WSW,247,2.0,6.0,79,0.00,,,0.01,Rainwise IP-100,2013-05-20 14:51:00,
2013-05-20 10:56:00,74.3,67.5,29.47,SE,135,2.0,3.0,79,0.00,,,0.01,Rainwise IP-100,2013-05-20 14:56:00,
2013-05-20 11:01:00,74.2,68.0,29.47,SW,225,1.0,6.0,80,0.00,,,0.01,Rainwise IP-100,2013-05-20 15:01:00,
2013-05-20 11:06:00,73.9,68.5,29.47,West,270,2.0,5.0,82,0.00,,,0.01,Rainwise IP-100,2013-05-20 15:06:00,
2013-05-20 11:11:00,74.1,68.0,29.47,WNW,292,2.0,5.0,81,0.00,,,0.01,Rainwise IP-100,2013-05-20 15:11:00,
2013-05-20 11:16:00,73.9,67.5,29.47,SW,225,2.0,7.0,80,0.00,,,0.01,Rainwise IP-100,2013-05-20 15:16:00,
2013-05-20 11:21:00,74.4,67.0,29.47,SW,225,4.0,8.0,78,0.00,,,0.01,Rainwise IP-100,2013-05-20 15:21:00,
2013-05-20 11:26:00,74.8,67.0,29.47,South,180,2.0,6.0,77,0.00,,,0.01,Rainwise IP-100,2013-05-20 15:26:00,
2013-05-20 11:31:00,75.3,68.0,29.47,SW,225,2.0,6.0,77,0.00,,,0.01,Rainwise IP-100,2013-05-20 15:31:00,
2013-05-20 11:36:00,75.8,68.0,29.48,SW,225,2.0,6.0,77,0.00,,,0.01,Rainwise IP-100,2013-05-20 15:36:00,
2013-05-20 11:41:00,75.5,67.5,29.49,ESE,112,1.0,7.0,76,0.00,,,0.01,Rainwise IP-100,2013-05-20 15:41:00,
2013-05-20 11:46:00,75.2,68.0,29.48,SSW,202,4.0,6.0,78,0.00,,,0.01,Rainwise IP-100,2013-05-20 15:46:00,
2013-05-20 11:51:00,74.9,68.0,29.48,SW,225,2.0,6.0,78,0.00,,,0.01,Rainwise IP-100,2013-05-20 15:51:00,
2013-05-20 11:56:00,74.6,68.0,29.48,SW,225,2.0,7.0,79,0.00,,,0.01,Rainwise IP-100,2013-05-20 15:56:00,
2013-05-20 12:01:00,74.6,68.5,29.47,WSW,247,3.0,9.0,80,0.00,,,0.01,Rainwise IP-100,2013-05-20 16:01:00,
2013-05-20 12:06:00,74.7,67.5,29.48,SW,225,3.0,6.0,78,0.00,,,0.01,Rainwise IP-100,2013-05-20 16:06:00,
2013-05-20 12:11:00,74.9,68.0,29.47,WSW,247,4.0,4.0,78,0.00,,,0.01,Rainwise IP-100,2013-05-20 16:11:00,
2013-05-20 12:16:00,74.9,68.5,29.47,SW,225,2.0,6.0,79,0.00,,,0.01,Rainwise IP-100,2013-05-20 16:16:00,
2013-05-20 12:21:00,75.1,68.0,29.47,WNW,292,2.0,5.0,78,0.00,,,0.01,Rainwise IP-100,2013-05-20 16:21:00,
2013-05-20 12:26:00,75.3,67.5,29.48,SW,225,2.0,4.0,76,0.00,,,0.01,Rainwise IP-100,2013-05-20 16:26:00,
2013-05-20 12:31:00,75.6,68.0,29.48,West,270,2.0,5.0,77,0.00,,,0.01,Rainwise IP-100,2013-05-20 16:31:00,
2013-05-20 12:36:00,75.8,67.5,29.49,NW,315,3.0,6.0,76,0.00,,,0.01,Rainwise IP-100,2013-05-20 16:36:00,
2013-05-20 12:41:00,75.6,68.0,29.49,NW,315,2.0,9.0,77,0.00,,,0.01,Rainwise IP-100,2013-05-20 16:41:00,
2013-05-20 12:46:00,75.3,68.5,29.49,WSW,247,2.0,7.0,79,0.00,,,0.01,Rainwise IP-100,2013-05-20 16:46:00,
2013-05-20 12:51:00,76.2,68.0,29.49,WSW,247,4.0,4.0,76,0.00,,,0.01,Rainwise IP-100,2013-05-20 16:51:00,
2013-05-20 12:56:00,76.0,67.5,29.49,West,270,4.0,8.0,75,0.00,,,0.01,Rainwise IP-100,2013-05-20 16:56:00,
2013-05-20 13:01:00,76.8,69.0,29.49,West,270,8.0,10.0,76,0.00,,,0.01,Rainwise IP-100,2013-05-20 17:01:00,
2013-05-20 13:06:00,75.9,67.5,29.49,WNW,292,2.0,10.0,76,0.00,,,0.01,Rainwise IP-100,2013-05-20 17:06:00,
2013-05-20 13:11:00,75.5,68.0,29.49,West,270,6.0,9.0,77,0.00,,,0.01,Rainwise IP-100,2013-05-20 17:11:00,
2013-05-20 13:16:00,74.9,68.5,29.47,SW,225,2.0,7.0,80,0.00,,,0.01,Rainwise IP-100,2013-05-20 17:16:00,
2013-05-20 13:21:00,74.6,69.7,29.45,SW,225,1.0,5.0,84,0.00,,,0.01,Rainwise IP-100,2013-05-20 17:21:00,
2013-05-20 13:26:00,74.5,69.3,29.44,WSW,247,2.0,5.0,83,0.00,,,0.01,Rainwise IP-100,2013-05-20 17:26:00,
2013-05-20 13:31:00,74.7,69.0,29.43,SW,225,2.0,5.0,82,0.00,,,0.01,Rainwise IP-100,2013-05-20 17:31:00,
2013-05-20 13:36:00,74.8,68.5,29.43,SW,225,4.0,7.0,80,0.00,,,0.01,Rainwise IP-100,2013-05-20 17:36:00,
2013-05-20 13:41:00,75.2,68.0,29.44,SW,225,4.0,7.0,78,0.00,,,0.01,Rainwise IP-100,2013-05-20 17:41:00,
2013-05-20 13:46:00,75.7,68.0,29.44,West,270,2.0,6.0,77,0.00,,,0.01,Rainwise IP-100,2013-05-20 17:46:00,
2013-05-20 13:51:00,76.3,68.0,29.45,SW,225,0.0,4.0,76,0.00,,,0.01,Rainwise IP-100,2013-05-20 17:51:00,
2013-05-20 13:56:00,76.9,68.5,29.45,SSW,202,4.0,4.0,74,0.00,,,0.01,Rainwise IP-100,2013-05-20 17:56:00,
2013-05-20 14:01:00,76.8,68.5,29.46,SE,135,1.0,6.0,75,0.00,,,0.01,Rainwise IP-100,2013-05-20 18:01:00,
2013-05-20 14:06:00,76.8,68.5,29.45,WSW,247,4.0,4.0,75,0.00,,,0.01,Rainwise IP-100,2013-05-20 18:06:00,
2013-05-20 14:11:00,76.3,68.0,29.45,SSE,157,2.0,6.0,76,0.00,,,0.01,Rainwise IP-100,2013-05-20 18:11:00,
2013-05-20 14:16:00,76.3,68.0,29.44,West,270,1.0,4.0,76,0.00,,,0.01,Rainwise IP-100,2013-05-20 18:16:00,
2013-05-20 14:21:00,76.5,68.5,29.44,West,270,2.0,4.0,76,0.00,,,0.01,Rainwise IP-100,2013-05-20 18:21:00,
2013-05-20 14:26:00,76.7,69.3,29.44,West,270,2.0,4.0,77,0.00,,,0.01,Rainwise IP-100,2013-05-20 18:26:00,
2013-05-20 14:31:00,76.8,68.0,29.45,WNW,292,4.0,6.0,74,0.00,,,0.01,Rainwise IP-100,2013-05-20 18:31:00,
2013-05-20 14:36:00,76.7,68.0,29.45,NW,315,2.0,6.0,74,0.00,,,0.01,Rainwise IP-100,2013-05-20 18:36:00,
2013-05-20 14:41:00,76.8,68.0,29.45,WNW,292,2.0,8.0,74,0.00,,,0.01,Rainwise IP-100,2013-05-20 18:41:00,
2013-05-20 14:46:00,77.1,68.5,29.45,WNW,292,4.0,6.0,74,0.00,,,0.01,Rainwise IP-100,2013-05-20 18:46:00,
2013-05-20 14:51:00,77.9,69.0,29.45,WSW,247,4.0,7.0,73,0.00,,,0.01,Rainwise IP-100,2013-05-20 18:51:00,
2013-05-20 14:56:00,77.9,68.5,29.46,NW,315,2.0,6.0,72,0.00,,,0.01,Rainwise IP-100,2013-05-20 18:56:00,
2013-05-20 15:01:00,78.2,69.0,29.46,WSW,247,5.0,6.0,72,0.00,,,0.01,Rainwise IP-100,2013-05-20 19:01:00,
2013-05-20 15:06:00,77.8,68.0,29.46,NW,315,2.0,6.0,72,0.00,,,0.01,Rainwise IP-100,2013-05-20 19:06:00,
2013-05-20 15:11:00,77.9,68.5,29.46,NNW,337,2.0,6.0,72,0.00,,,0.01,Rainwise IP-100,2013-05-20 19:11:00,
2013-05-20 15:16:00,78.3,68.5,29.45,North,360,0.0,4.0,71,0.00,,,0.01,Rainwise IP-100,2013-05-20 19:16:00,
2013-05-20 15:21:00,79.3,68.5,29.45,West,270,1.0,4.0,69,0.00,,,0.01,Rainwise IP-100,2013-05-20 19:21:00,
2013-05-20 15:26:00,79.1,68.5,29.45,NW,315,2.0,4.0,70,0.00,,,0.01,Rainwise IP-100,2013-05-20 19:26:00,
2013-05-20 15:31:00,79.3,68.5,29.46,South,180,2.0,4.0,69,0.00,,,0.01,Rainwise IP-100,2013-05-20 19:31:00,
2013-05-20 15:36:00,79.4,67.0,29.47,SW,225,2.0,5.0,66,0.00,,,0.01,Rainwise IP-100,2013-05-20 19:36:00,
2013-05-20 15:41:00,79.6,67.5,29.47,WSW,247,1.0,6.0,67,0.00,,,0.01,Rainwise IP-100,2013-05-20 19:41:00,
2013-05-20 15:46:00,80.2,68.0,29.47,West,270,4.0,6.0,66,0.00,,,0.01,Rainwise IP-100,2013-05-20 19:46:00,
2013-05-20 15:51:00,80.5,67.0,29.47,West,270,4.0,5.0,64,0.00,,,0.01,Rainwise IP-100,2013-05-20 19:51:00,
2013-05-20 15:56:00,80.1,67.5,29.47,West,270,4.0,6.0,66,0.00,,,0.01,Rainwise IP-100,2013-05-20 19:56:00,
2013-05-20 16:01:00,79.7,66.3,29.47,West,270,1.0,6.0,64,0.00,,,0.01,Rainwise IP-100,2013-05-20 20:01:00,
2013-05-20 16:06:00,80.2,67.5,29.46,West,270,5.0,5.0,65,0.00,,,0.01,Rainwise IP-100,2013-05-20 20:06:00,
2013-05-20 16:11:00,80.7,68.0,29.46,West,270,2.0,7.0,65,0.00,,,0.01,Rainwise IP-100,2013-05-20 20:11:00,
2013-05-20 16:16:00,80.4,68.0,29.46,WNW,292,6.0,7.0,66,0.00,,,0.01,Rainwise IP-100,2013-05-20 20:16:00,
2013-05-20 16:21:00,80.1,68.0,29.46,SW,225,2.0,7.0,67,0.00,,,0.01,Rainwise IP-100,2013-05-20 20:21:00,
2013-05-20 16:26:00,80.6,68.5,29.46,WNW,292,4.0,5.0,67,0.00,,,0.01,Rainwise IP-100,2013-05-20 20:26:00,
2013-05-20 16:31:00,80.4,67.0,29.47,WNW,292,4.0,6.0,64,0.00,,,0.01,Rainwise IP-100,2013-05-20 20:31:00,
2013-05-20 16:36:00,80.9,67.0,29.47,NNW,337,3.0,6.0,63,0.00,,,0.01,Rainwise IP-100,2013-05-20 20:36:00,
2013-05-20 16:41:00,81.1,67.5,29.47,SW,225,2.0,6.0,64,0.00,,,0.01,Rainwise IP-100,2013-05-20 20:41:00,
2013-05-20 16:46:00,80.2,68.0,29.47,SE,135,2.0,6.0,66,0.00,,,0.01,Rainwise IP-100,2013-05-20 20:46:00,
2013-05-20 16:51:00,81.3,68.0,29.47,West,270,2.0,5.0,64,0.00,,,0.01,Rainwise IP-100,2013-05-20 20:51:00,
2013-05-20 16:56:00,80.8,68.5,29.47,West,270,6.0,6.0,66,0.00,,,0.01,Rainwise IP-100,2013-05-20 20:56:00,
2013-05-20 17:01:00,80.8,68.0,29.47,West,270,4.0,6.0,65,0.00,,,0.01,Rainwise IP-100,2013-05-20 21:01:00,
2013-05-20 17:06:00,80.8,67.5,29.47,NW,315,2.0,6.0,64,0.00,,,0.01,Rainwise IP-100,2013-05-20 21:06:00,
2013-05-20 17:11:00,80.4,68.0,29.46,NW,315,2.0,6.0,66,0.00,,,0.01,Rainwise IP-100,2013-05-20 21:11:00,
2013-05-20 17:16:00,79.9,68.0,29.45,WNW,292,2.0,7.0,67,0.00,,,0.01,Rainwise IP-100,2013-05-20 21:16:00,
2013-05-20 17:21:00,79.9,68.0,29.45,NW,315,1.0,5.0,67,0.00,,,0.01,Rainwise IP-100,2013-05-20 21:21:00,
2013-05-20 17:26:00,79.8,68.0,29.44,West,270,4.0,5.0,68,0.00,,,0.01,Rainwise IP-100,2013-05-20 21:26:00,
2013-05-20 17:31:00,79.9,67.0,29.44,WSW,247,0.0,4.0,65,0.00,,,0.01,Rainwise IP-100,2013-05-20 21:31:00,
2013-05-20 17:36:00,80.8,68.0,29.44,NW,315,1.0,3.0,65,0.00,,,0.01,Rainwise IP-100,2013-05-20 21:36:00,
2013-05-20 17:41:00,81.7,68.0,29.44,NW,315,3.0,3.0,63,0.00,,,0.01,Rainwise IP-100,2013-05-20 21:41:00,
2013-05-20 17:46:00,81.2,67.0,29.45,NW,315,2.0,6.0,62,0.00,,,0.01,Rainwise IP-100,2013-05-20 21:46:00,
2013-05-20 17:51:00,81.0,66.7,29.45,NW,315,2.0,3.0,62,0.00,,,0.01,Rainwise IP-100,2013-05-20 21:51:00,
2013-05-20 17:56:00,81.3,67.0,29.45,NW,315,0.0,2.0,62,0.00,,,0.01,Rainwise IP-100,2013-05-20 21:56:00,
2013-05-20 18:01:00,82.3,67.0,29.44,NNW,337,2.0,2.0,60,0.00,,,0.01,Rainwise IP-100,2013-05-20 22:01:00,
2013-05-20 18:06:00,83.1,67.0,29.45,West,270,2.0,4.0,59,0.00,,,0.01,Rainwise IP-100,2013-05-20 22:06:00,
2013-05-20 18:11:00,82.7,67.0,29.45,WNW,292,3.0,3.0,59,0.00,,,0.01,Rainwise IP-100,2013-05-20 22:11:00,
2013-05-20 18:16:00,81.6,68.0,29.44,SSW,202,2.0,4.0,63,0.00,,,0.01,Rainwise IP-100,2013-05-20 22:16:00,
2013-05-20 18:21:00,80.9,67.5,29.43,WSW,247,1.0,4.0,64,0.00,,,0.01,Rainwise IP-100,2013-05-20 22:21:00,
2013-05-20 18:26:00,80.7,67.5,29.43,SW,225,3.0,4.0,64,0.00,,,0.01,Rainwise IP-100,2013-05-20 22:26:00,
2013-05-20 18:31:00,80.3,68.0,29.42,WSW,247,2.0,4.0,66,0.00,,,0.01,Rainwise IP-100,2013-05-20 22:31:00,
2013-05-20 18:36:00,80.3,67.5,29.42,West,270,1.0,4.0,65,0.00,,,0.01,Rainwise IP-100,2013-05-20 22:36:00,
2013-05-20 18:41:00,80.3,67.5,29.41,WSW,247,4.0,5.0,65,0.00,,,0.01,Rainwise IP-100,2013-05-20 22:41:00,
2013-05-20 18:46:00,79.7,67.5,29.41,WSW,247,2.0,6.0,67,0.00,,,0.01,Rainwise IP-100,2013-05-20 22:46:00,
2013-05-20 18:51:00,80.0,68.0,29.41,NW,315,3.0,3.0,67,0.00,,,0.01,Rainwise IP-100,2013-05-20 22:51:00,
2013-05-20 18:56:00,80.1,68.0,29.41,WSW,247,2.0,4.0,67,0.00,,,0.01,Rainwise IP-100,2013-05-20 22:56:00,
2013-05-20 19:01:00,79.7,68.0,29.41,West,270,3.0,4.0,68,0.00,,,0.01,Rainwise IP-100,2013-05-20 23:01:00,
2013-05-20 19:06:00,79.7,67.5,29.42,WNW,292,1.0,4.0,67,0.00,,,0.01,Rainwise IP-100,2013-05-20 23:06:00,
2013-05-20 19:11:00,80.0,67.5,29.42,West,270,1.0,4.0,66,0.00,,,0.01,Rainwise IP-100,2013-05-20 23:11:00,
2013-05-20 19:16:00,80.0,67.5,29.42,West,270,2.0,4.0,66,0.00,,,0.01,Rainwise IP-100,2013-05-20 23:16:00,
2013-05-20 19:21:00,79.9,68.0,29.42,WNW,292,3.0,4.0,67,0.00,,,0.01,Rainwise IP-100,2013-05-20 23:21:00,
2013-05-20 19:26:00,79.7,67.5,29.42,SSW,202,1.0,4.0,67,0.00,,,0.01,Rainwise IP-100,2013-05-20 23:26:00,
2013-05-20 19:31:00,79.2,68.0,29.41,WSW,247,2.0,4.0,68,0.00,,,0.01,Rainwise IP-100,2013-05-20 23:31:00,
2013-05-20 19:36:00,79.0,68.0,29.41,West,270,1.0,3.0,69,0.00,,,0.01,Rainwise IP-100,2013-05-20 23:36:00,
2013-05-20 19:41:00,78.9,68.0,29.41,WSW,247,2.0,4.0,69,0.00,,,0.01,Rainwise IP-100,2013-05-20 23:41:00,
2013-05-20 19:46:00,78.8,68.0,29.41,WSW,247,1.0,3.0,70,0.00,,,0.01,Rainwise IP-100,2013-05-20 23:46:00,
2013-05-20 19:51:00,78.8,68.0,29.41,SW,225,1.0,4.0,70,0.00,,,0.01,Rainwise IP-100,2013-05-20 23:51:00,
2013-05-20 19:56:00,78.9,68.0,29.41,SW,225,0.0,2.0,69,0.00,,,0.01,Rainwise IP-100,2013-05-20 23:56:00,
2013-05-20 20:01:00,78.8,68.5,29.41,WSW,247,1.0,2.0,71,0.00,,,0.01,Rainwise IP-100,2013-05-21 00:01:00,
2013-05-20 20:06:00,78.3,69.0,29.41,West,270,1.0,2.0,72,0.00,,,0.01,Rainwise IP-100,2013-05-21 00:06:00,
2013-05-20 20:11:00,77.9,69.0,29.41,West,270,2.0,2.0,73,0.00,,,0.01,Rainwise IP-100,2013-05-21 00:11:00,
2013-05-20 20:16:00,77.7,69.0,29.41,West,270,1.0,2.0,74,0.00,,,0.01,Rainwise IP-100,2013-05-21 00:16:00,
2013-05-20 20:21:00,77.5,69.3,29.40,West,270,1.0,2.0,75,0.00,,,0.01,Rainwise IP-100,2013-05-21 00:21:00,
2013-05-20 20:26:00,77.4,69.0,29.40,West,270,0.0,1.0,75,0.00,,,0.01,Rainwise IP-100,2013-05-21 00:26:00,
2013-05-20 20:31:00,77.2,69.3,29.40,West,270,0.0,1.0,76,0.00,,,0.01,Rainwise IP-100,2013-05-21 00:31:00,
2013-05-20 20:36:00,76.8,68.0,29.39,West,270,0.0,0.0,74,0.00,,,0.01,Rainwise IP-100,2013-05-21 00:36:00,
2013-05-20 20:41:00,76.7,69.0,29.39,West,270,0.0,0.0,76,0.00,,,0.01,Rainwise IP-100,2013-05-21 00:41:00,
2013-05-20 20:46:00,76.3,68.5,29.39,West,270,0.0,0.0,77,0.00,,,0.01,Rainwise IP-100,2013-05-21 00:46:00,
2013-05-20 20:51:00,75.8,69.0,29.39,West,270,0.0,0.0,79,0.00,,,0.01,Rainwise IP-100,2013-05-21 00:51:00,
2013-05-20 20:56:00,75.2,69.0,29.39,West,270,0.0,0.0,81,0.00,,,0.01,Rainwise IP-100,2013-05-21 00:56:00,
2013-05-20 21:01:00,74.9,69.3,29.38,SSE,157,2.0,2.0,82,0.00,,,0.01,Rainwise IP-100,2013-05-21 01:01:00,
2013-05-20 21:06:00,74.8,69.0,29.37,ESE,112,1.0,2.0,82,0.00,,,0.01,Rainwise IP-100,2013-05-21 01:06:00,
2013-05-20 21:11:00,74.7,68.5,29.37,ESE,112,0.0,2.0,81,0.00,,,0.01,Rainwise IP-100,2013-05-21 01:11:00,
2013-05-20 21:16:00,74.2,69.7,29.37,ESE,112,1.0,1.0,85,0.00,,,0.01,Rainwise IP-100,2013-05-21 01:16:00,
2013-05-20 21:21:00,73.7,69.0,29.37,ESE,112,1.0,2.0,85,0.00,,,0.01,Rainwise IP-100,2013-05-21 01:21:00,
2013-05-20 21:26:00,73.7,69.3,29.37,ESE,112,2.0,2.0,86,0.00,,,0.01,Rainwise IP-100,2013-05-21 01:26:00,
2013-05-20 21:31:00,73.6,69.3,29.36,ESE,112,0.0,2.0,86,0.00,,,0.01,Rainwise IP-100,2013-05-21 01:31:00,
2013-05-20 21:36:00,73.4,69.7,29.36,East,90,1.0,1.0,88,0.00,,,0.01,Rainwise IP-100,2013-05-21 01:36:00,
2013-05-20 21:41:00,72.9,69.7,29.36,East,90,0.0,2.0,89,0.00,,,0.01,Rainwise IP-100,2013-05-21 01:41:00,
2013-05-20 21:46:00,72.5,70.0,29.36,East,90,1.0,2.0,91,0.00,,,0.01,Rainwise IP-100,2013-05-21 01:46:00,
2013-05-20 21:51:00,72.3,69.3,29.36,ESE,112,0.0,2.0,90,0.00,,,0.01,Rainwise IP-100,2013-05-21 01:51:00,
2013-05-20 21:56:00,72.2,70.0,29.35,ESE,112,0.0,0.0,92,0.00,,,0.01,Rainwise IP-100,2013-05-21 01:56:00,
2013-05-20 22:01:00,71.9,69.3,29.35,ESE,112,0.0,2.0,91,0.00,,,0.01,Rainwise IP-100,2013-05-21 02:01:00,
2013-05-20 22:06:00,71.7,69.7,29.36,NNE,22,2.0,2.0,94,0.00,,,0.01,Rainwise IP-100,2013-05-21 02:06:00,
2013-05-20 22:11:00,71.4,69.7,29.35,ENE,67,1.0,2.0,95,0.00,,,0.01,Rainwise IP-100,2013-05-21 02:11:00,
2013-05-20 22:16:00,71.4,69.7,29.35,ENE,67,2.0,2.0,95,0.00,,,0.01,Rainwise IP-100,2013-05-21 02:16:00,
2013-05-20 22:21:00,71.4,69.7,29.36,SE,135,2.0,2.0,95,0.00,,,0.01,Rainwise IP-100,2013-05-21 02:21:00,
2013-05-20 22:26:00,71.2,69.7,29.36,SE,135,0.0,2.0,95,0.00,,,0.01,Rainwise IP-100,2013-05-21 02:26:00,
2013-05-20 22:31:00,70.9,69.7,29.36,ESE,112,0.0,2.0,96,0.00,,,0.01,Rainwise IP-100,2013-05-21 02:31:00,
2013-05-20 22:36:00,70.9,69.7,29.36,ESE,112,2.0,2.0,96,0.00,,,0.01,Rainwise IP-100,2013-05-21 02:36:00,
2013-05-20 22:41:00,70.6,69.3,29.36,ESE,112,0.0,2.0,96,0.00,,,0.01,Rainwise IP-100,2013-05-21 02:41:00,
2013-05-20 22:46:00,70.6,69.7,29.36,ESE,112,1.0,2.0,97,0.00,,,0.01,Rainwise IP-100,2013-05-21 02:46:00,
2013-05-20 22:51:00,70.7,69.7,29.36,ESE,112,1.0,2.0,97,0.00,,,0.01,Rainwise IP-100,2013-05-21 02:51:00,
2013-05-20 22:56:00,70.7,69.7,29.36,SE,135,1.0,2.0,97,0.00,,,0.01,Rainwise IP-100,2013-05-21 02:56:00,
2013-05-20 23:01:00,70.6,70.0,29.35,SE,135,2.0,3.0,98,0.00,,,0.01,Rainwise IP-100,2013-05-21 03:01:00,
2013-05-20 23:06:00,70.7,70.0,29.35,SE,135,2.0,4.0,99,0.00,,,0.01,Rainwise IP-100,2013-05-21 03:06:00,
2013-05-20 23:11:00,70.7,70.0,29.35,ESE,112,1.0,4.0,99,0.00,,,0.01,Rainwise IP-100,2013-05-21 03:11:00,
2013-05-20 23:16:00,70.7,70.0,29.35,SE,135,0.0,4.0,99,0.00,,,0.01,Rainwise IP-100,2013-05-21 03:16:00,
2013-05-20 23:21:00,70.6,70.0,29.35,South,180,1.0,2.0,99,0.00,,,0.01,Rainwise IP-100,2013-05-21 03:21:00,
2013-05-20 23:26:00,70.6,70.0,29.35,SE,135,4.0,5.0,98,0.00,,,0.01,Rainwise IP-100,2013-05-21 03:26:00,
2013-05-20 23:31:00,70.6,70.0,29.35,SW,225,1.0,5.0,98,0.00,,,0.01,Rainwise IP-100,2013-05-21 03:31:00,
2013-05-20 23:36:00,70.6,69.7,29.35,SSE,157,2.0,4.0,97,0.00,,,0.01,Rainwise IP-100,2013-05-21 03:36:00,
2013-05-20 23:41:00,70.5,69.7,29.35,SE,135,2.0,5.0,97,0.00,,,0.01,Rainwise IP-100,2013-05-21 03:41:00,
2013-05-20 23:46:00,70.4,69.7,29.34,SE,135,2.0,2.0,97,0.00,,,0.01,Rainwise IP-100,2013-05-21 03:46:00,
2013-05-20 23:51:00,70.3,69.7,29.34,South,180,1.0,4.0,97,0.00,,,0.01,Rainwise IP-100,2013-05-21 03:51:00,
2013-05-20 23:56:00,70.3,69.7,29.33,SW,225,2.0,4.0,97,0.00,,,0.01,Rainwise IP-100,2013-05-21 03:56:00,